Location: Bruderhein
(53.8035°N, 112.9265°W)
Time: 12:43:04
(UTC+00:00)

N. Korean satellite - Visible Passes

Search period start: 01 December 2021 00:00
Search period end: 11 December 2021 00:00
Orbit: 447 x 495 km, 97.3° (Epoch: 01 December)

Date Brightness Start Highest point End Pass type
(mag) Time Alt. Az. Time Alt. Az. Time Alt. Az.
01 Dec 10.1 01:16:40 10° WSW 01:17:36 11° W 01:18:34 10° WNW visible
01 Dec 7.9 12:32:07 10° NNE 12:35:20 38° E 12:38:31 10° SSE visible
01 Dec 7.7 14:05:44 10° NNW 14:08:21 21° WNW 14:10:57 10° WSW visible
02 Dec 9.4 00:46:07 10° SW 00:48:50 20° W 00:51:32 10° NW visible
02 Dec 9.1 12:04:06 10° NE 12:06:39 19° E 12:09:11 10° SE visible
02 Dec 6.8 13:36:50 10° N 13:40:02 38° WNW 13:43:11 10° SW visible
03 Dec 8.1 00:16:50 10° SSW 00:20:10 39° W 00:23:29 10° NNW visible
03 Dec 10.0 11:37:37 10° E 11:37:51 10° E 11:38:05 10° E visible
03 Dec 6.2 13:08:09 10° NNE 13:11:34 81° WNW 13:14:57 10° SSW visible
03 Dec 8.5 14:43:48 10° NW 14:44:09 10° NW 14:44:31 10° WNW visible
04 Dec 7.4 12:39:42 10° NNE 12:43:01 46° E 12:46:17 10° S visible
04 Dec 7.9 14:13:35 10° NNW 14:15:56 18° WNW 14:18:17 10° WSW visible
05 Dec 9.6 00:54:10 10° SW 00:56:33 17° W 00:58:55 10° NW visible
05 Dec 8.8 12:11:33 10° NE 12:14:20 23° E 12:17:06 10° SSE visible
05 Dec 7.1 13:44:31 10° N 13:47:36 32° WNW 13:50:39 10° SW visible
06 Dec 8.5 00:24:37 10° SSW 00:27:49 32° W 00:30:59 10° NNW visible
06 Dec 9.8 11:44:06 10° ENE 11:45:31 12° E 11:46:56 10° ESE visible
06 Dec 6.3 13:15:45 10° N 13:19:09 66° WNW 13:22:30 10° SSW visible
06 Dec 6.9 23:55:40 10° S 23:59:10 67° WSW 00:02:38 10° NNW visible
07 Dec 7.0 12:47:13 10° NNE 12:50:35 57° ESE 12:53:54 10° S visible
07 Dec 8.1 14:21:21 10° NNW 14:23:24 15° WNW 14:25:26 10° W visible
08 Dec 9.7 01:02:12 10° WSW 01:04:09 14° W 01:06:06 10° NW visible
08 Dec 8.5 12:18:55 10° NE 12:21:53 27° E 12:24:50 10° SSE visible
08 Dec 7.3 13:52:08 10° N 13:55:03 27° WNW 13:57:58 10° SW visible
09 Dec 8.9 00:32:20 10° SSW 00:35:21 27° W 00:38:20 10° NW visible
09 Dec 9.6 11:51:07 10° NE 11:53:04 14° E 11:55:01 10° SE visible
09 Dec 6.4 13:23:16 10° N 13:26:35 54° WNW 13:29:54 10° SSW visible
10 Dec 7.3 00:03:13 10° S 00:06:39 54° W 00:10:02 10° NNW visible
10 Dec 7.0 12:54:37 10° NNE 13:00:09 21° S 13:01:24 10° S visible
10 Dec 8.2 14:29:05 10° NNW 14:30:46 13° WNW 14:31:21 13° WNW visible
